Wind_Speed
22 21 21 21 21 21 20 21 21 21 20 20 20 21 22 22 21 21 21 20 19 19 19 19 19 19 18 18 17 16 16 15 14 13 12 11 11 10 10 9 9 8 8 7 7 6 7 7 6 5 4 5 6 5 5 6 7 7 8 9 10 10 10 11 11 11 10 10 9 9 10 10 10 11 10 10 9 9 10 10 10 10 10 11 11
24 23 22 23 22 21 21 22 22 21 21 20 20 21 21 21 21 20 20 20 20 20 19 19 18 18 17 16 15 15 14 14 13 12 11 10 10 9 9 8 7 7 7 6 6 5 5 5 5 5 5 4 5 5 5 6 7 7 8 9 10 11 11 11 11 10 10 9 8 8 9 10 10 11 10 10 9 8 9 9 10 10 10 11 11
26 24 23 23 22 22 22 22 22 21 21 20 20 20 20 20 20 20 19 19 20 20 19 19 18 17 16 16 15 14 14 13 12 11 10 10 9 8 7 5 5 6 5 5 5 5 4 4 4 4 5 5 6 6 6 6 7 8 8 9 10 11 12 12 11 11 10 9 8 6 7 8 9 10 11 10 8 8 8 9 9 9 10 11 11
25 25 25 24 23 23 22 22 22 21 21 20 19 19 19 19 19 19 19 19 19 19 19 18 18 17 16 15 14 14 13 12 11 10 10 9 8 7 6 5 4 4 5 4 4 4 4 4 4 4 5 5 6 6 6 6 7 8 8 9 10 10 11 11 11 10 10 9 8 6 6 6 7 8 10 10 8 7 8 8 9 9 9 10 11
25 26 26 24 24 23 22 22 22 22 21 20 20 19 19 19 18 18 19 19 18 18 18 17 17 16 15 15 13 13 12 11 10 9 8 8 7 6 5 5 4 4 5 5 5 5 5 5 4 4 5 6 6 6 7 6 6 8 8 9 10 10 10 9 9 9 8 9 8 7 6 5 6 8 9 9 8 8 8 8 8 8 8 9 10
26 27 27 26 25 24 23 23 22 22 21 20 20 19 19 19 18 18 18 18 18 18 17 17 16 16 15 14 13 12 11 10 9 8 7 7 6 6 6 5 5 5 5 5 5 5 6 6 6 5 6 6 6 6 7 7 7 8 9 9 9 10 10 9 8 7 7 8 9 9 7 5 5 7 8 9 9 8 8 7 8 8 9 9 10
27 28 27 26 25 25 24 23 22 21 20 20 19 19 19 19 18 18 17 17 17 17 17 16 16 15 14 13 12 11 10 9 8 7 7 6 6 6 6 6 5 5 5 5 5 5 6 6 7 7 7 7 7 7 7 8 8 9 9 9 10 10 10 10 8 7 7 8 9 9 8 6 5 6 8 9 8 8 7 7 7 8 9 9 9
27 28 28 26 26 25 24 23 22 21 20 19 18 18 18 18 17 17 17 17 17 16 16 15 15 14 13 12 11 11 10 9 8 7 7 6 6 6 6 5 5 5 5 5 5 5 6 6 7 8 8 8 8 8 8 8 9 10 10 10 10 10 11 10 10 8 8 9 9 9 9 7 6 6 7 8 8 8 6 7 7 8 9 10 10
28 27 28 26 26 25 24 22 21 20 19 19 18 17 17 17 17 17 16 16 16 15 14 14 14 13 12 12 11 10 10 9 8 8 7 7 6 5 4 4 4 4 4 4 5 5 6 6 6 7 7 8 8 9 9 9 10 11 11 11 11 11 11 11 10 9 9 9 9 9 9 8 7 6 6 8 7 7 6 6 7 7 9 10 11
27 27 26 25 25 25 23 22 20 20 19 19 18 17 17 16 16 16 16 16 15 14 14 13 13 13 12 11 11 10 9 9 8 8 7 6 5 4 4 4 3 4 3 4 4 5 5 5 5 6 6 7 7 8 9 10 11 11 12 13 13 12 12 11 11 10 10 10 8 8 9 9 8 6 6 6 7 7 6 6 6 7 9 10 11
27 26 25 25 25 23 23 22 21 20 19 19 18 17 17 16 15 15 15 15 14 14 13 13 13 13 12 11 10 9 9 8 8 7 6 5 4 4 4 3 3 3 3 2 3 3 4 5 5 6 6 7 7 7 8 10 11 11 12 14 14 14 13 13 12 11 10 11 9 7 8 9 8 7 6 5 6 7 7 7 7 8 9 10 12
27 26 25 25 24 23 22 22 21 20 19 19 18 17 16 16 15 15 15 14 14 14 13 13 12 12 11 10 9 9 8 8 7 6 6 5 5 4 4 3 3 2 1 1 2 2 3 4 5 6 6 7 7 7 8 9 10 10 12 14 14 14 14 14 13 11 11 12 10 8 8 8 8 8 6 5 6 7 7 7 7 8 9 10 11
27 26 26 24 23 22 21 20 20 19 18 18 18 17 16 16 15 15 14 14 14 13 13 12 12 11 11 10 9 9 8 8 7 6 6 6 5 5 4 3 2 2 1 0 1 2 3 4 5 5 6 6 6 7 7 8 8 9 11 13 14 15 15 16 15 13 12 13 11 9 9 8 7 7 7 5 6 7 7 8 8 9 9 10 11
27 26 25 23 22 21 20 19 19 18 18 17 17 17 16 15 15 15 14 13 13 13 13 12 11 11 10 10 9 9 8 7 7 6 6 6 6 5 4 4 3 2 2 1 1 2 2 3 4 4 5 5 6 6 6 7 7 9 10 12 14 15 16 17 17 16 14 14 12 11 10 9 8 7 7 6 6 6 7 8 10 10 9 9 11
26 26 24 22 22 21 20 19 18 17 17 16 16 16 15 15 15 14 14 14 14 14 13 12 12 11 10 10 9 8 7 7 6 7 6 6 6 5 5 4 4 3 2 1 1 1 2 2 2 3 3 4 5 5 5 5 7 8 10 11 13 15 16 17 18 18 17 15 14 13 12 10 9 8 8 7 6 6 8 9 10 10 10 9 11
24 24 23 22 22 21 20 18 17 16 15 15 15 15 14 14 14 14 14 14 14 14 13 12 11 11 10 9 8 8 7 7 6 7 7 7 7 6 5 4 3 2 2 2 2 2 3 3 3 2 1 3 3 3 4 4 6 7 8 9 11 13 16 17 18 19 18 17 16 15 14 11 10 9 8 8 7 6 9 10 10 10 10 10 11
23 23 23 23 22 22 20 19 17 16 15 14 14 14 14 13 13 13 14 14 14 13 13 12 11 10 10 9 9 8 7 7 7 7 7 7 7 6 5 4 3 3 3 3 3 3 4 4 4 4 3 2 2 3 3 4 5 5 7 8 10 11 13 16 17 19 19 19 18 17 16 13 12 10 9 9 8 7 9 10 10 10 10 11 13
23 22 23 22 21 21 20 19 17 16 14 14 14 13 13 13 13 13 14 13 13 12 12 11 10 9 9 9 9 8 8 8 9 9 8 7 6 5 5 5 5 4 4 4 4 4 4 4 4 4 4 4 3 3 3 3 3 4 5 7 9 10 11 14 16 19 20 20 19 18 17 15 13 11 10 10 9 7 8 11 11 10 10 12 14
22 21 21 21 20 19 18 17 16 15 13 13 14 14 13 13 13 13 13 13 12 11 11 10 10 9 9 9 9 9 9 10 10 9 8 7 6 6 5 5 5 4 4 4 3 3 4 4 4 3 4 4 3 3 3 3 3 3 5 6 7 9 10 11 14 17 19 19 19 19 18 16 14 13 11 11 10 7 8 11 11 11 11 12 14
21 20 20 19 19 18 17 16 15 14 12 13 14 14 14 13 13 12 12 13 12 11 10 10 10 10 10 10 10 10 9 9 9 8 8 7 6 6 5 4 3 2 2 2 2 3 4 5 4 4 4 4 4 3 2 2 2 2 4 5 6 7 8 10 12 15 18 19 19 18 18 17 15 14 13 12 11 8 9 11 11 11 12 12 14
20 20 19 18 19 17 16 15 15 14 14 14 14 14 14 13 13 13 13 13 12 12 11 12 12 11 11 11 10 9 9 8 8 7 7 6 5 4 3 1 1 2 3 4 4 4 5 6 5 4 4 4 4 4 3 2 2 2 4 4 4 6 7 9 11 14 17 19 19 18 18 17 16 15 15 13 12 9 9 11 11 12 13 13 14
21 20 19 19 18 17 16 16 16 16 15 15 15 14 14 14 13 14 14 13 13 13 13 13 13 12 11 10 10 9 8 7 6 6 5 4 3 2 1 2 4 4 5 6 5 6 8 8 7 6 6 6 5 4 4 3 2 2 4 4 3 5 7 9 11 13 16 19 18 18 18 17 17 17 16 14 13 10 10 12 12 13 13 13 15
20 20 19 18 17 18 17 17 17 17 16 16 15 14 14 15 15 15 15 14 14 15 15 14 13 12 11 10 9 8 7 6 5 4 4 2 3 2 3 5 6 6 7 7 7 8 10 10 10 8 8 8 6 6 5 4 4 3 3 3 2 4 7 9 11 12 16 18 18 17 17 16 17 18 17 15 14 11 10 12 13 14 14 14 15
20 19 18 17 17 18 17 17 17 16 16 16 16 15 15 16 16 16 16 16 16 16 15 13 12 11 11 10 9 9 7 5 4 3 3 2 3 3 4 6 5 6 8 8 9 10 11 11 11 9 9 9 8 7 5 4 4 4 3 3 3 3 6 9 10 12 15 17 17 17 16 15 16 18 17 15 14 13 11 12 14 14 15 15 16
16 17 17 17 17 17 17 18 17 16 16 17 17 16 17 17 18 17 16 16 16 16 14 12 12 11 10 11 10 9 7 5 3 2 2 2 2 2 4 5 5 6 8 8 9 11 11 11 11 10 9 9 10 9 7 4 4 4 4 4 3 2 4 7 10 13 15 16 17 17 17 16 17 18 17 15 14 14 12 12 13 15 15 16 17
12 15 17 17 17 17 17 17 17 17 16 17 17 17 18 18 18 17 16 16 15 14 12 12 11 10 9 10 9 7 5 4 3 2 2 2 2 3 4 5 6 7 8 9 9 10 11 11 11 10 10 9 9 9 8 6 4 4 5 4 3 3 3 5 9 12 14 16 17 17 18 18 18 19 18 16 15 15 13 12 13 14 15 17 18
12 14 17 16 15 15 17 18 17 17 17 17 17 18 19 19 17 16 15 15 14 13 11 11 10 8 7 8 7 5 3 3 4 3 3 3 3 4 4 6 8 8 9 10 10 10 11 12 11 9 9 9 8 8 8 7 5 5 5 4 3 4 3 4 7 10 13 16 17 16 16 17 18 19 18 17 16 16 15 13 13 14 16 17 18
13 14 16 15 15 15 17 19 17 18 17 18 18 18 19 18 17 16 15 14 13 11 10 9 8 7 6 5 6 4 2 3 3 3 4 4 4 3 5 7 9 10 10 11 12 12 12 12 11 8 7 8 8 8 8 8 7 6 5 4 4 4 4 4 6 9 12 14 16 15 14 16 18 18 18 17 17 17 16 15 14 14 17 18 18
14 15 15 15 15 15 16 18 17 18 18 19 19 18 19 18 17 16 15 14 12 11 11 9 7 7 5 4 4 3 1 1 2 1 3 4 3 3 5 8 10 11 12 13 13 13 12 12 10 8 8 9 10 9 8 9 8 7 6 5 5 5 6 6 6 8 11 14 16 16 15 15 17 18 18 18 18 19 18 16 15 15 16 18 19
15 15 15 14 14 15 15 16 17 18 18 19 19 18 19 18 17 17 16 15 13 11 10 7 5 4 3 3 3 3 1 2 2 2 3 3 3 5 7 9 11 12 13 14 14 13 12 12 10 9 9 11 11 10 9 9 9 8 7 7 6 6 6 7 7 8 11 13 16 17 18 17 17 18 19 19 19 20 19 18 17 16 17 18 19
16 16 15 14 13 14 15 14 16 18 18 19 19 19 18 18 19 18 18 15 12 10 8 7 4 2 3 3 3 4 5 5 5 6 5 4 6 8 10 11 12 14 15 14 14 14 12 11 10 9 10 11 10 9 9 10 10 9 8 8 7 7 7 8 8 9 11 13 15 17 19 19 18 18 19 19 20 21 21 20 18 17 17 18 20
20 17 15 16 14 13 15 13 15 18 19 18 19 19 19 18 19 18 16 15 12 9 8 8 6 3 5 6 5 8 10 9 9 10 8 8 9 11 12 13 14 15 15 15 14 14 13 11 10 9 9 9 9 8 8 9 9 9 9 9 9 8 8 9 10 11 11 12 14 16 18 19 19 19 19 20 21 22 22 22 20 19 19 19 20
22 17 16 19 14 11 14 13 14 18 19 19 18 19 19 18 16 14 13 13 12 9 8 8 7 4 5 8 9 11 10 10 10 10 10 11 12 13 13 14 15 15 15 14 14 14 13 12 10 9 8 8 8 7 7 7 8 10 10 11 10 9 10 11 11 12 12 12 14 16 19 20 20 20 19 20 22 23 24 23 21 20 20 20 20
21 21 20 21 16 12 14 14 14 15 17 18 18 18 19 17 14 13 11 12 13 12 12 12 11 8 7 9 12 11 10 10 9 8 9 11 13 13 14 14 14 14 13 13 13 13 12 11 11 9 8 7 7 7 6 6 8 10 10 11 11 10 11 12 12 13 13 14 13 16 20 21 21 21 20 20 22 24 25 24 22 21 21 21 21
18 21 24 25 22 18 15 15 15 13 14 15 16 17 17 15 12 13 14 15 16 15 15 17 14 10 8 10 12 11 10 12 10 9 10 11 12 13 13 13 12 12 11 11 11 11 11 11 10 8 7 7 7 7 7 6 7 8 9 11 11 12 13 12 12 13 14 14 14 14 18 20 21 22 22 21 22 24 25 25 24 23 22 22 22
14 14 24 27 26 25 20 18 17 15 15 15 15 16 15 14 12 13 15 17 19 16 14 16 13 10 10 11 12 12 12 13 12 11 10 11 11 11 12 12 11 10 9 9 10 11 10 10 9 7 6 7 7 7 7 7 7 7 8 10 10 13 14 13 13 14 14 14 14 14 17 20 20 21 22 23 23 24 25 26 26 25 24 23 23
13 12 22 23 22 27 26 22 20 18 18 16 16 15 14 14 12 13 15 16 17 15 13 15 14 13 14 14 14 15 15 14 12 11 11 11 12 11 11 11 10 9 9 8 9 10 10 9 7 6 6 7 6 6 7 7 7 6 7 8 10 12 14 13 14 14 13 13 14 15 16 18 18 19 22 23 24 25 26 26 27 27 27 25 24
17 15 20 17 14 23 28 25 22 21 19 18 16 15 15 15 13 13 16 16 16 14 14 16 16 14 15 15 16 16 16 14 12 11 12 13 12 10 10 10 9 9 9 8 9 9 8 6 5 5 5 5 5 6 7 7 6 5 6 7 8 10 12 13 14 14 13 14 15 15 15 16 17 19 21 21 23 25 27 28 28 28 28 28 27
20 16 18 15 12 18 27 27 25 22 20 18 17 17 17 16 14 14 16 18 18 18 17 18 16 16 17 17 17 16 16 15 13 13 13 13 11 10 9 9 9 8 8 8 7 6 4 5 5 5 6 6 6 8 8 7 6 5 5 5 5 8 10 12 14 14 14 14 15 15 15 15 17 18 18 19 20 22 25 28 29 29 29 29 29
24 20 18 17 14 14 22 28 26 22 20 20 19 20 19 18 18 17 18 19 20 22 21 19 18 19 20 19 18 17 17 16 14 13 12 12 11 10 9 8 8 8 8 7 4 3 4 5 6 6 6 6 7 9 10 10 9 8 6 4 1 5 8 10 12 14 14 14 14 15 16 16 17 17 16 16 17 19 21 24 28 30 30 30 30
27 26 23 20 17 14 18 25 26 24 23 22 22 22 22 21 21 21 21 22 22 24 23 22 22 21 21 20 19 18 18 17 15 13 13 12 10 9 9 8 8 7 6 4 2 2 4 5 6 7 7 6 7 9 11 12 12 11 8 6 3 2 6 7 9 11 13 14 14 15 16 17 18 16 15 16 17 18 18 19 23 26 29 30 31
29 29 28 24 21 17 19 24 26 26 24 23 23 24 24 24 24 24 24 24 24 25 24 23 23 22 21 20 20 19 18 17 15 13 12 11 9 8 8 8 7 5 2 2 4 5 6 7 6 6 7 6 7 9 11 11 12 13 10 7 5 2 2 4 7 9 12 14 15 15 16 17 18 17 17 18 18 18 17 18 20 22 25 28 30
28 29 29 27 25 21 20 23 25 25 25 25 26 27 27 26 26 26 25 25 25 24 23 23 23 22 21 21 20 18 16 14 12 11 10 9 7 7 7 6 5 2 3 5 7 7 8 8 7 7 7 5 6 9 11 11 11 11 11 9 8 6 3 2 4 7 11 13 15 16 17 17 17 18 19 20 20 19 18 18 18 20 22 25 27
26 27 27 27 27 25 22 22 24 25 26 28 30 30 29 28 28 27 27 26 25 24 23 23 23 21 21 20 17 13 10 9 8 8 8 7 7 7 5 3 1 3 6 7 7 7 6 7 7 8 7 6 6 8 11 12 10 9 10 10 10 9 6 4 3 3 7 12 14 15 17 19 19 19 20 21 21 21 20 20 19 20 22 24 25
22 23 24 25 26 27 25 24 25 26 28 30 31 30 29 29 29 29 29 28 27 26 25 26 23 19 18 16 12 9 7 6 7 7 8 7 6 5 3 0 5 8 8 8 7 5 4 5 7 8 7 5 6 8 10 12 10 9 9 8 8 8 8 8 5 3 3 7 11 13 15 17 19 20 20 20 21 22 23 23 23 23 23 24 24
20 20 21 22 23 24 26 26 24 24 27 32 32 31 30 28 28 29 30 29 28 28 27 25 20 17 16 12 8 7 6 6 7 7 7 6 5 4 0 6 9 9 7 5 4 3 3 4 7 7 5 4 5 7 8 9 9 9 9 9 8 8 9 10 7 6 6 3 5 8 10 13 15 18 19 20 20 21 21 22 23 24 25 25 25
18 18 18 20 21 22 23 24 22 22 26 29 31 31 30 29 28 29 29 28 27 27 26 21 18 17 14 10 8 7 7 6 6 6 5 4 3 1 5 10 10 7 5 3 2 3 4 4 5 6 5 3 3 6 8 8 7 7 8 10 11 9 10 10 8 7 7 5 2 3 5 7 10 14 16 18 19 20 20 20 21 22 24 25 26
15 15 16 17 18 19 21 21 21 22 23 24 26 26 25 26 28 30 29 28 27 26 24 20 18 17 15 12 9 7 7 7 6 5 4 3 2 4 9 10 8 6 4 3 1 3 3 3 4 3 3 1 2 5 8 9 8 6 6 9 10 10 11 12 10 8 8 7 4 1 1 2 5 7 8 10 11 14 17 19 21 22 23 24 25
12 12 12 13 13 14 16 17 16 17 18 19 19 19 18 17 20 27 30 30 29 26 23 20 17 17 16 12 9 8 8 7 5 5 3 2 5 8 11 10 7 6 5 4 3 2 1 2 1 1 2 3 3 5 9 9 8 7 6 7 9 9 10 13 13 10 9 9 6 2 0 1 3 3 4 6 8 10 12 15 18 20 22 23 24
10 9 9 9 9 9 10 10 10 12 13 15 15 14 12 11 13 20 26 27 25 22 19 18 16 15 13 9 8 8 7 6 5 4 4 6 9 11 11 9 5 3 3 2 3 4 1 4 2 1 2 3 4 7 9 8 6 5 5 5 7 9 9 12 13 11 8 7 8 6 4 5 5 4 4 5 6 8 10 12 14 15 17 19 21
9 8 7 7 7 8 7 7 8 9 10 10 10 8 7 5 8 14 20 19 18 16 15 14 11 9 7 7 7 7 6 6 5 6 8 9 10 10 8 6 2 1 1 1 4 4 3 4 4 2 2 3 6 8 8 4 3 3 3 4 6 8 9 11 11 9 6 4 6 8 7 5 5 4 3 3 3 4 5 7 10 11 13 15 17
Wind_Direction
158 155 153 150 148 150 150 153 153 152 149 149 151 152 152 151 151 151 149 147 146 146 147 146 145 144 143 142 141 143 143 145 146 148 147 145 144 145 145 144 149 151 153 157 157 162 166 163 163 162 154 140 131 134 127 118 120 128 143 151 152 147 145 147 147 147 147 145 141 138 133 130 131 130 126 125 128 129 128 127 122 122 124 119 116
157 157 155 152 149 150 151 152 152 152 151 150 153 154 155 156 156 156 154 152 151 150 151 151 150 148 147 146 146 147 147 150 152 153 152 152 152 151 149 150 156 157 160 158 155 166 175 169 170 174 175 164 143 135 126 120 123 133 148 155 156 155 155 154 154 154 155 151 145 143 140 141 140 134 130 128 128 127 129 126 121 125 124 119 118
156 157 155 151 150 151 151 151 151 151 151 151 153 155 156 157 159 160 159 158 156 155 155 156 156 156 155 154 154 154 155 157 157 158 160 164 164 165 163 167 172 169 174 171 168 183 195 184 177 180 183 180 161 146 133 126 128 140 155 159 162 163 163 162 162 162 160 153 148 147 147 150 147 139 134 129 127 128 131 126 122 128 124 119 118
158 156 153 151 152 151 151 151 152 152 151 151 152 155 156 157 158 161 162 162 162 161 161 161 162 162 163 163 163 163 163 163 164 167 172 177 178 182 182 186 192 185 189 195 204 212 229 226 206 194 190 190 176 157 145 140 136 146 159 163 167 170 171 170 168 167 163 155 150 148 149 154 155 145 134 127 128 132 133 127 125 127 123 117 115
158 156 153 152 153 152 152 152 152 152 152 152 152 154 155 156 158 160 161 162 163 164 165 166 167 167 169 170 171 171 171 171 173 177 182 187 191 198 195 196 203 201 205 210 222 231 241 243 231 213 200 201 191 173 160 157 151 152 159 169 173 172 176 177 172 169 165 161 154 149 150 153 159 152 136 130 133 136 135 130 127 128 126 116 111
158 157 153 152 153 152 154 153 152 152 152 153 153 154 155 156 158 161 161 162 162 163 166 167 169 170 172 172 173 174 176 177 177 180 184 190 196 203 200 201 209 213 220 224 231 238 241 240 237 227 212 210 205 192 179 174 172 164 162 172 176 174 177 180 177 170 168 171 164 155 154 152 156 157 143 137 139 139 139 134 129 132 129 116 111
159 158 154 154 153 154 154 153 153 152 153 154 154 154 154 155 157 159 161 162 163 164 166 167 169 170 171 172 173 174 176 178 179 182 185 190 194 197 200 203 213 222 228 235 239 242 245 244 241 236 228 221 216 209 197 191 188 182 174 175 179 179 180 183 185 182 182 182 175 164 160 155 155 159 147 141 141 140 141 138 136 135 129 120 114
160 159 156 156 155 155 155 154 155 155 155 155 156 155 153 155 156 158 159 161 163 166 168 169 170 170 171 172 173 176 178 179 181 184 184 187 189 193 200 206 218 233 237 242 246 248 254 255 249 243 240 233 228 223 216 210 205 202 193 185 185 187 190 194 197 197 204 199 185 176 168 160 160 164 150 143 142 143 145 145 145 140 132 126 122
162 159 157 157 156 156 156 156 156 157 156 155 156 155 154 155 157 159 159 160 162 163 164 167 169 169 170 171 172 174 175 176 178 178 179 182 182 185 193 204 216 228 237 247 254 259 263 260 255 248 247 245 239 233 230 227 221 218 211 202 197 197 200 206 208 205 215 215 195 184 178 167 165 172 158 147 145 147 148 145 148 146 138 133 129
162 159 158 157 156 157 156 155 157 158 156 155 155 155 154 155 157 159 159 160 160 160 161 163 166 166 166 166 167 167 168 169 173 174 173 175 175 177 185 200 212 218 228 243 257 265 261 257 256 253 253 255 253 244 238 235 229 224 221 215 208 206 208 212 215 211 217 225 209 191 186 176 171 173 164 156 151 153 153 142 148 151 145 139 134
161 160 158 157 156 155 155 156 159 158 157 156 156 157 156 157 158 158 159 159 159 159 159 160 162 162 161 160 160 160 162 165 169 171 169 169 172 177 183 196 203 207 219 241 261 267 262 260 259 259 260 261 260 251 243 241 235 226 222 219 215 212 213 217 218 213 215 226 222 204 195 186 178 173 166 168 162 160 160 150 154 157 151 146 139
163 161 158 158 156 156 158 159 160 158 158 158 157 158 159 159 160 161 161 160 160 159 159 158 158 157 155 154 156 157 160 164 165 165 164 165 168 175 177 183 186 185 207 249 275 280 276 269 265 263 262 262 261 255 248 246 242 231 222 218 217 213 214 218 219 216 214 223 226 217 204 190 184 179 173 178 170 163 164 161 159 156 153 151 143
163 161 159 160 156 159 161 160 160 158 160 160 159 160 161 161 162 165 164 162 162 161 159 156 155 155 152 154 158 158 160 162 160 160 161 165 168 168 166 164 157 148 156 97 355 325 304 283 272 266 262 259 258 255 249 247 246 238 225 217 218 216 214 216 218 218 217 219 224 223 211 191 185 187 186 182 169 164 168 168 159 153 154 155 148
162 161 161 160 157 160 163 161 160 159 162 162 162 163 163 166 168 170 168 166 164 162 158 156 156 155 153 155 157 156 156 157 158 163 163 167 165 159 157 151 146 143 126 84 37 352 323 302 285 273 264 259 253 252 250 248 246 240 232 222 220 219 216 215 215 217 217 217 220 224 219 198 187 192 193 184 170 168 171 169 159 154 156 156 151
161 161 160 160 159 161 162 162 160 159 161 161 162 163 164 167 168 169 167 164 161 159 157 157 158 155 153 153 154 154 157 161 163 165 163 161 156 150 151 146 143 140 119 84 48 23 359 350 316 284 271 262 254 250 253 252 247 243 241 232 225 221 217 214 212 215 216 216 218 223 224 212 195 193 196 187 176 171 172 169 160 158 159 158 153
161 160 160 161 159 160 162 162 161 160 161 162 163 161 162 163 163 163 161 159 157 156 156 157 157 153 153 153 156 161 161 158 156 157 154 153 151 150 147 140 134 120 98 71 53 49 40 39 38 17 317 276 259 255 257 255 251 246 245 241 231 225 220 215 210 212 215 217 220 222 224 220 204 197 199 193 182 174 175 171 162 162 162 160 155
163 162 162 161 160 161 163 162 162 162 163 166 167 165 163 162 162 161 160 160 158 157 155 156 156 154 155 156 159 159 154 145 143 145 146 147 146 146 138 127 119 102 85 70 58 51 44 36 35 36 24 344 301 281 279 270 261 252 247 244 236 228 222 217 211 209 213 217 222 224 223 222 212 204 205 199 187 182 180 172 165 167 166 163 158
165 165 164 161 161 162 162 161 163 164 167 171 171 169 165 163 164 164 164 164 162 159 157 157 158 157 156 155 154 151 147 143 143 143 142 141 135 130 123 114 106 96 87 69 52 40 35 23 18 24 24 11 346 317 302 288 270 257 252 249 242 232 223 217 212 210 212 215 220 223 222 221 216 210 211 203 192 192 187 175 170 170 169 166 162
165 167 166 163 161 161 161 162 165 167 172 174 170 167 165 167 167 168 168 165 163 161 161 159 158 156 154 151 150 149 146 144 142 140 137 131 125 122 116 110 102 93 82 65 45 28 18 4 359 2 5 7 355 334 318 304 288 261 254 254 246 239 227 216 211 210 213 214 216 220 220 219 218 214 213 205 197 199 190 180 176 172 171 171 167
165 169 169 164 161 161 164 165 167 169 173 170 165 162 162 165 165 167 166 164 163 164 163 159 156 153 150 148 145 144 141 138 135 133 131 126 125 122 118 112 99 79 55 33 11 357 351 346 346 350 346 352 355 340 331 319 301 274 261 257 250 247 233 216 210 210 212 212 214 217 216 216 218 215 212 206 199 200 192 185 181 174 174 174 171
167 171 171 166 163 164 166 166 166 166 166 163 161 158 157 160 161 162 164 164 164 163 160 154 152 147 143 141 137 136 134 131 128 126 124 122 123 120 118 99 32 10 359 342 337 336 336 332 328 334 335 336 347 341 329 310 293 277 270 263 249 248 236 220 213 210 210 210 212 214 213 216 217 213 211 207 201 201 193 188 186 180 179 175 172
170 172 173 171 167 166 167 166 163 161 161 161 161 159 157 158 157 160 163 164 163 159 154 149 147 142 138 137 134 133 132 128 121 114 112 110 104 97 39 2 352 346 344 340 336 334 334 329 320 317 321 325 326 329 323 305 290 272 271 274 260 242 231 224 215 209 209 209 211 211 212 217 214 210 212 209 202 201 191 188 190 184 182 177 174
169 172 174 174 170 168 167 165 162 160 162 162 161 161 158 157 157 159 160 159 158 153 149 147 144 141 139 139 136 131 128 128 123 105 99 78 40 22 355 357 355 350 349 348 341 337 336 329 322 313 312 316 312 315 318 306 292 276 272 283 286 240 224 221 216 208 207 208 210 210 212 214 210 206 210 210 205 202 192 190 193 186 185 181 177
168 169 171 174 173 170 167 166 164 162 163 163 162 162 158 158 157 157 156 154 154 151 148 146 143 142 141 140 132 123 118 118 127 107 77 52 25 6 356 3 2 358 355 351 343 337 336 330 323 313 309 310 305 304 307 303 293 286 283 279 285 250 224 219 213 205 204 205 207 209 212 213 208 205 206 207 205 203 196 193 196 189 185 184 182
170 168 168 172 175 173 170 168 167 164 165 165 163 163 161 159 156 154 153 153 155 153 149 148 145 141 140 139 133 123 111 96 96 82 49 45 27 350 354 9 359 349 345 342 339 333 334 333 325 315 310 307 302 298 294 292 291 295 293 279 274 256 231 221 212 206 204 202 204 208 213 214 210 207 207 206 205 205 201 196 199 194 188 185 186
180 178 173 170 175 177 175 173 171 168 166 165 163 163 163 159 155 153 154 155 157 156 152 152 148 139 136 137 135 125 107 71 31 347 344 347 352 344 346 354 341 333 330 329 331 327 327 329 326 316 311 309 302 294 287 285 287 294 297 286 269 262 248 226 213 209 206 202 203 208 211 212 210 208 209 208 206 207 205 201 201 199 194 189 188
189 190 183 175 178 182 181 180 176 170 166 165 165 165 163 159 157 156 157 157 155 156 154 153 149 143 142 137 132 123 98 30 351 308 301 309 325 341 341 336 328 323 322 324 325 323 322 321 322 315 310 314 308 294 284 281 284 285 288 285 264 259 256 240 223 214 210 205 204 206 207 207 207 209 210 208 207 208 209 207 204 201 200 195 191
188 191 191 188 189 189 185 184 179 172 169 168 168 166 164 163 163 160 160 159 154 152 150 148 144 144 151 144 139 137 98 25 357 302 295 296 312 332 328 324 322 322 322 324 323 322 321 317 317 309 299 306 307 298 284 279 280 274 275 276 264 255 245 244 235 220 215 211 208 206 205 207 208 210 210 208 209 208 210 210 207 204 203 200 195
187 190 191 194 200 198 187 185 183 177 174 173 173 170 169 172 172 164 159 156 150 147 147 144 135 136 141 140 151 156 124 16 2 316 277 276 295 307 308 316 322 324 322 322 322 320 320 316 313 304 294 299 300 293 279 272 270 260 257 259 253 251 244 242 235 221 217 215 214 211 208 210 210 210 210 210 211 210 211 212 209 206 205 203 199
194 194 190 195 206 202 192 190 187 183 179 178 179 178 178 180 177 166 157 152 148 152 158 153 141 145 150 145 163 179 214 255 272 277 253 250 267 282 296 309 315 317 317 318 318 314 313 313 309 301 297 301 300 287 270 262 257 251 252 253 243 238 240 242 236 222 216 213 214 213 211 213 213 210 211 213 214 213 214 214 212 209 207 207 203
199 198 193 194 207 204 197 196 194 191 184 181 184 185 186 186 181 172 164 158 157 169 178 180 186 207 211 198 194 213 238 256 265 271 265 255 266 282 294 302 306 311 318 320 317 313 311 310 307 303 299 302 301 285 269 254 243 242 251 257 249 239 236 239 242 234 222 212 210 212 212 214 216 214 214 216 216 216 216 216 214 212 210 210 208
202 204 199 194 207 205 197 201 203 200 191 186 190 189 188 185 184 182 174 167 170 183 190 195 198 202 207 207 211 219 237 263 277 274 269 270 277 286 294 301 308 316 323 324 319 318 316 312 311 312 310 309 307 288 268 250 238 244 253 254 246 241 241 235 239 242 234 220 212 212 213 214 216 218 218 218 218 216 217 218 217 214 212 213 213
208 211 205 199 210 205 198 205 207 208 201 194 193 193 192 187 187 190 183 177 183 195 199 203 207 214 211 206 211 220 240 275 290 284 278 282 285 290 297 304 312 319 326 324 320 321 318 315 315 317 318 314 310 293 270 255 251 257 261 258 245 237 243 238 234 238 238 230 218 212 213 214 216 220 220 220 220 218 218 220 220 218 216 217 217
206 211 209 205 213 209 202 206 206 209 208 201 194 195 198 194 192 198 197 195 199 202 201 206 214 224 222 203 208 224 254 281 290 290 286 288 288 291 299 305 312 318 323 321 318 320 316 315 314 314 321 321 310 296 279 269 265 264 264 264 254 240 241 238 232 233 232 229 224 215 213 214 216 221 223 223 224 220 220 221 221 222 221 222 221
193 209 215 210 214 213 208 210 210 210 213 210 198 195 201 199 199 205 205 202 203 201 197 205 212 218 214 202 215 237 263 274 274 277 285 289 288 290 297 303 310 315 318 317 316 316 314 316 315 309 321 331 315 301 295 284 275 273 271 269 259 245 239 235 231 230 228 225 225 222 218 216 217 221 225 228 227 224 222 221 222 224 225 226 226
184 206 212 210 216 216 213 215 214 212 213 214 202 196 202 208 213 215 208 199 201 203 199 205 213 220 221 220 237 252 262 265 264 273 286 291 291 294 301 306 312 315 315 318 315 311 313 317 315 311 327 338 326 314 310 299 288 282 276 270 256 242 236 233 230 229 227 224 223 223 220 217 216 221 226 227 226 226 224 223 223 226 227 229 230
189 193 200 207 221 218 213 215 216 213 212 212 204 200 208 216 222 223 215 203 203 208 205 205 210 222 231 237 247 252 255 257 263 280 288 291 296 303 308 310 314 317 315 317 318 315 316 318 317 328 343 344 341 334 325 315 303 289 279 268 249 236 233 232 231 230 229 227 225 225 222 219 218 222 226 225 223 224 226 226 226 228 230 231 231
198 195 198 208 225 217 212 214 216 213 213 212 205 204 210 214 219 219 215 208 207 213 215 212 215 225 231 236 242 247 250 254 266 284 289 293 301 308 311 314 318 317 311 314 323 324 324 332 338 354 6 2 359 357 343 330 321 307 292 273 246 229 229 232 230 231 232 230 229 229 227 226 225 223 225 225 223 223 225 227 227 229 231 232 232
206 208 209 216 220 213 212 213 212 209 210 211 206 204 206 210 212 206 203 206 212 218 222 222 223 228 229 233 241 246 251 259 272 281 286 293 300 309 314 318 318 310 308 314 328 342 357 11 17 24 31 33 28 22 12 1 357 350 328 294 248 222 223 229 230 232 234 232 229 230 231 232 231 227 225 226 226 226 226 226 228 229 232 234 235
210 214 216 220 220 212 209 208 207 206 206 205 203 202 203 208 211 206 201 205 214 221 225 226 226 228 230 234 242 250 257 265 273 276 282 292 298 307 314 317 312 303 309 320 337 21 41 48 55 56 49 47 46 38 32 33 33 30 24 12 272 217 218 225 230 230 231 231 229 229 232 234 233 231 231 232 232 231 230 229 229 231 233 235 237
211 214 219 222 220 214 205 203 201 201 203 204 205 208 210 213 214 212 207 207 213 219 223 227 229 233 235 238 245 254 263 269 273 273 280 289 294 302 310 311 307 304 317 333 10 51 49 57 67 61 44 41 48 41 34 39 41 41 46 48 53 216 226 234 236 232 231 231 230 231 232 233 234 236 240 241 237 234 234 233 232 234 237 239 240
214 214 219 221 221 217 205 202 201 201 204 209 211 215 218 220 219 216 211 209 212 216 221 228 234 239 242 246 252 259 266 269 270 273 280 284 288 300 305 305 309 316 352 71 97 84 63 56 55 43 31 29 40 34 28 31 32 37 52 68 73 69 259 262 254 246 243 239 237 236 234 234 234 236 241 244 243 238 235 233 232 236 239 241 243
219 218 219 220 221 219 209 206 206 206 209 214 218 220 221 222 221 218 215 213 212 215 222 229 236 242 248 252 257 261 264 263 267 274 277 278 285 296 298 304 314 324 118 114 108 93 67 48 35 28 30 35 36 29 24 21 20 29 46 61 66 69 70 354 287 257 254 251 247 243 239 237 235 236 240 244 246 245 241 237 234 237 239 240 242
221 222 221 221 222 221 219 215 211 212 217 224 228 230 230 227 223 221 220 220 221 223 226 230 236 245 252 254 255 257 257 258 269 272 270 277 287 293 301 309 296 144 134 125 120 106 75 45 31 32 42 47 35 26 24 21 16 19 30 41 48 53 56 22 338 268 252 248 247 246 243 240 237 237 240 243 245 248 248 246 243 242 241 239 240
220 222 223 225 226 225 226 223 216 215 225 234 237 237 234 230 226 225 223 223 226 229 231 233 235 241 247 248 248 252 254 258 262 266 275 286 288 292 316 149 146 136 132 132 130 124 94 57 45 43 44 42 28 21 22 24 25 23 20 25 32 31 23 10 3 351 290 248 241 242 242 243 241 240 242 245 247 247 247 247 246 247 246 245 244
218 222 224 227 230 232 232 230 226 226 236 244 244 240 235 228 223 222 221 222 224 226 230 232 233 238 242 240 239 245 250 252 255 269 284 287 285 297 355 146 146 134 133 140 141 165 151 81 57 46 41 38 26 16 11 15 25 30 23 18 13 2 357 357 356 357 349 308 253 246 243 245 245 244 245 248 250 249 248 248 248 249 250 250 250
219 222 226 230 234 238 238 239 243 245 248 251 249 244 239 230 223 220 219 220 220 220 222 227 230 234 235 234 236 243 249 255 265 277 282 281 288 267 149 150 149 137 136 154 188 207 180 106 64 52 62 65 26 0 351 350 358 15 20 18 14 1 353 349 338 333 338 343 332 261 246 247 247 249 251 253 255 255 254 254 253 253 252 252 252
218 220 225 232 238 243 246 249 254 256 256 258 258 256 251 241 231 224 219 218 218 217 220 224 224 225 228 235 243 246 252 259 265 267 268 269 242 155 148 149 148 137 123 119 155 224 199 103 55 66 97 88 325 334 339 337 335 343 355 6 14 13 10 4 346 324 312 312 327 346 219 243 244 247 254 258 261 262 261 259 257 256 256 256 256
216 219 224 230 236 242 247 253 260 261 263 265 266 270 270 258 238 223 216 216 218 218 222 222 221 228 233 234 238 241 246 252 252 248 243 210 163 149 148 149 150 140 118 97 51 345 189 146 12 257 209 251 294 323 329 329 326 325 331 349 4 6 8 8 357 340 314 295 295 309 73 278 274 274 281 281 281 280 276 268 263 259 258 258 258
214 219 224 230 233 238 243 252 265 272 275 276 276 276 271 265 248 222 208 209 215 216 219 219 222 234 235 226 226 231 233 236 234 211 172 152 148 149 154 155 154 145 133 109 1 355 131 168 233 264 214 261 309 322 320 317 309 310 323 347 2 357 358 6 0 350 332 299 288 297 310 306 304 315 319 303 297 295 286 277 272 267 263 261 260
215 216 217 226 232 239 247 251 263 272 276 281 284 280 267 261 249 218 200 201 211 212 213 217 222 230 224 217 221 221 218 216 200 163 142 140 148 157 164 160 131 48 59 304 303 293 238 216 241 250 240 277 312 321 318 307 264 265 302 341 1 3 7 16 12 5 6 339 301 305 312 308 306 315 336 324 316 317 304 285 278 276 274 272 271
Height
1547 1548 1549 1549 1551 1551 1553 1553 1554 1554 1555 1556 1556 1557 1558 1558 1559 1559 1560 1560 1561 1561 1562 1562 1562 1563 1563 1564 1564 1565 1565 1565 1566 1566 1566 1567 1567 1567 1567 1568 1568 1568 1568 1568 1568 1568 1569 1569 1569 1569 1569 1569 1569 1569 1568 1568 1568 1568 1568 1567 1567 1566 1566 1567 1567 1567 1567 1568 1568 1568 1568 1568 1568 1568 1569 1569 1568 1568 1568 1569 1569 1569 1568 1568 1569
1546 1548 1549 1550 1551 1552 1553 1553 1554 1555 1555 1556 1557 1558 1558 1559 1559 1560 1560 1561 1562 1562 1562 1563 1563 1563 1564 1564 1565 1565 1566 1566 1566 1566 1567 1567 1568 1568 1568 1568 1568 1568 1569 1569 1569 1569 1569 1569 1569 1569 1569 1570 1570 1569 1569 1569 1569 1568 1568 1568 1567 1567 1567 1567 1567 1567 1568 1568 1568 1568 1568 1568 1569 1569 1569 1569 1569 1569 1569 1569 1570 1570 1569 1569 1569
1546 1548 1549 1550 1551 1552 1553 1554 1555 1555 1556 1557 1558 1558 1559 1559 1560 1561 1561 1562 1562 1563 1563 1563 1564 1564 1564 1565 1565 1566 1566 1566 1567 1567 1567 1568 1568 1568 1568 1568 1568 1569 1569 1569 1569 1569 1569 1569 1570 1569 1570 1570 1570 1570 1569 1569 1569 1569 1568 1568 1568 1568 1567 1567 1567 1567 1568 1568 1568 1568 1569 1569 1569 1569 1569 1570 1570 1570 1570 1570 1570 1570 1570 1570 1570
1546 1548 1549 1550 1551 1553 1553 1554 1555 1556 1556 1557 1558 1559 1559 1560 1560 1561 1561 1562 1562 1563 1563 1564 1564 1564 1565 1565 1566 1566 1566 1567 1567 1567 1568 1568 1568 1568 1568 1568 1568 1569 1569 1569 1569 1569 1569 1569 1569 1570 1570 1570 1570 1570 1570 1570 1569 1569 1569 1569 1568 1568 1568 1568 1568 1568 1568 1568 1568 1569 1569 1569 1569 1570 1570 1570 1570 1570 1571 1571 1571 1571 1571 1571 1571
1547 1548 1549 1550 1552 1553 1554 1555 1556 1556 1557 1557 1558 1559 1559 1560 1560 1561 1561 1562 1563 1563 1563 1564 1564 1565 1565 1565 1566 1566 1567 1567 1567 1567 1568 1568 1568 1568 1568 1568 1568 1568 1569 1569 1569 1569 1569 1569 1569 1569 1569 1569 1570 1570 1570 1570 1570 1569 1569 1569 1569 1569 1569 1569 1569 1569 1569 1569 1569 1569 1569 1569 1570 1570 1570 1570 1570 1571 1571 1571 1571 1572 1572 1572 1572
1547 1548 1549 1550 1552 1553 1554 1555 1556 1557 1557 1558 1558 1559 1560 1560 1561 1561 1562 1562 1563 1563 1563 1564 1564 1565 1565 1566 1566 1566 1567 1567 1567 1567 1567 1568 1568 1568 1568 1568 1568 1568 1568 1568 1568 1568 1568 1568 1569 1569 1569 1569 1569 1569 1570 1570 1570 1569 1569 1569 1569 1569 1569 1569 1569 1569 1570 1569 1569 1569 1569 1570 1570 1571 1570 1570 1571 1571 1571 1572 1572 1572 1573 1573 1573
1547 1548 1550 1551 1552 1553 1555 1556 1557 1557 1558 1559 1559 1559 1560 1560 1561 1561 1562 1562 1562 1563 1563 1564 1564 1565 1565 1565 1566 1566 1566 1567 1567 1567 1567 1568 1568 1568 1568 1568 1568 1568 1568 1568 1568 1568 1568 1568 1568 1568 1568 1568 1568 1569 1569 1569 1569 1569 1569 1569 1569 1569 1569 1569 1569 1570 1570 1570 1570 1570 1570 1570 1571 1571 1571 1571 1571 1571 1572 1572 1572 1572 1573 1574 1574
1547 1548 1550 1551 1553 1554 1555 1556 1557 1558 1559 1559 1559 1560 1560 1560 1561 1561 1562 1562 1562 1563 1563 1564 1564 1564 1565 1565 1565 1566 1566 1566 1567 1567 1567 1567 1568 1568 1568 1568 1568 1568 1568 1567 1567 1567 1567 1567 1567 1567 1567 1567 1568 1568 1568 1568 1569 1569 1569 1569 1569 1569 1569 1569 1569 1570 1570 1570 1570 1570 1570 1570 1571 1571 1571 1571 1571 1572 1572 1572 1572 1573 1573 1574 1574
1548 1549 1550 1552 1553 1554 1555 1557 1557 1558 1559 1559 1560 1560 1560 1561 1561 1561 1562 1562 1562 1563 1563 1564 1564 1564 1565 1565 1565 1566 1566 1566 1566 1567 1567 1567 1567 1567 1567 1567 1567 1567 1567 1567 1567 1566 1566 1566 1566 1566 1566 1566 1567 1567 1567 1568 1568 1568 1568 1568 1569 1569 1569 1569 1569 1569 1569 1569 1570 1570 1570 1570 1571 1571 1571 1571 1571 1572 1572 1572 1572 1573 1573 1574 1574
1548 1549 1551 1552 1553 1554 1555 1557 1558 1559 1559 1560 1560 1561 1561 1561 1562 1562 1562 1562 1563 1563 1563 1564 1564 1564 1565 1565 1565 1566 1566 1566 1566 1566 1566 1567 1567 1567 1567 1567 1567 1567 1566 1566 1566 1566 1566 1565 1565 1565 1565 1565 1566 1566 1566 1566 1567 1567 1567 1567 1568 1568 1568 1568 1568 1569 1569 1569 1570 1570 1570 1570 1570 1571 1571 1571 1571 1572 1572 1572 1572 1573 1573 1574 1574
1549 1550 1551 1553 1554 1555 1556 1557 1558 1559 1559 1560 1561 1561 1561 1562 1562 1562 1562 1563 1563 1563 1563 1564 1564 1564 1565 1565 1565 1565 1565 1566 1566 1566 1566 1566 1566 1566 1567 1566 1566 1566 1566 1566 1566 1565 1565 1565 1565 1565 1564 1564 1565 1565 1565 1565 1565 1566 1566 1566 1567 1567 1568 1568 1568 1569 1569 1568 1569 1570 1570 1570 1570 1571 1571 1572 1572 1572 1572 1572 1572 1573 1573 1574 1574
1549 1551 1552 1553 1554 1555 1556 1557 1558 1559 1560 1560 1561 1561 1562 1562 1562 1562 1563 1563 1563 1563 1564 1564 1564 1564 1565 1565 1565 1565 1565 1565 1565 1566 1566 1566 1566 1566 1566 1566 1566 1566 1566 1565 1565 1565 1564 1564 1564 1564 1564 1564 1564 1564 1564 1564 1564 1564 1565 1565 1566 1566 1567 1567 1568 1568 1568 1568 1569 1569 1570 1570 1570 1571 1571 1571 1571 1572 1572 1572 1572 1573 1573 1574 1574
1550 1551 1553 1554 1554 1556 1557 1558 1558 1559 1560 1560 1561 1561 1562 1562 1562 1563 1563 1563 1564 1564 1564 1564 1564 1565 1565 1565 1565 1565 1565 1565 1565 1565 1566 1566 1566 1566 1566 1566 1566 1566 1565 1565 1564 1564 1564 1563 1563 1563 1563 1563 1563 1563 1563 1563 1563 1563 1563 1564 1564 1565 1565 1566 1567 1567 1567 1567 1568 1569 1570 1570 1570 1571 1571 1571 1571 1572 1572 1572 1572 1573 1573 1574 1575
1551 1552 1553 1554 1555 1556 1557 1558 1559 1559 1560 1561 1561 1562 1562 1563 1563 1563 1563 1564 1564 1564 1564 1564 1565 1565 1565 1565 1565 1565 1565 1565 1565 1566 1566 1566 1566 1566 1566 1566 1566 1565 1565 1564 1564 1563 1563 1563 1562 1562 1562 1562 1562 1562 1562 1562 1562 1562 1562 1562 1562 1563 1564 1564 1565 1566 1566 1567 1567 1568 1569 1570 1570 1571 1571 1571 1572 1572 1572 1572 1572 1573 1574 1574 1575
1551 1552 1554 1555 1555 1557 1558 1558 1559 1560 1560 1561 1561 1562 1562 1563 1563 1563 1563 1564 1564 1564 1565 1565 1565 1565 1565 1565 1565 1565 1565 1565 1566 1566 1566 1566 1566 1566 1566 1566 1565 1565 1565 1564 1564 1563 1563 1562 1562 1562 1561 1561 1561 1561 1561 1561 1561 1561 1561 1561 1561 1561 1562 1563 1564 1565 1565 1566 1566 1567 1568 1569 1570 1570 1571 1571 1572 1572 1572 1572 1573 1573 1574 1574 1575
1553 1553 1554 1555 1556 1557 1558 1559 1559 1560 1561 1561 1561 1562 1562 1563 1563 1563 1563 1564 1564 1565 1565 1565 1565 1565 1565 1565 1565 1565 1565 1566 1566 1566 1566 1566 1566 1566 1566 1565 1565 1565 1564 1564 1563 1563 1563 1562 1562 1561 1561 1561 1560 1560 1560 1560 1559 1559 1559 1559 1559 1560 1561 1561 1562 1564 1565 1565 1566 1567 1568 1569 1570 1570 1571 1571 1572 1572 1572 1572 1573 1573 1574 1575 1575
1553 1554 1555 1555 1556 1557 1558 1559 1560 1560 1561 1561 1562 1562 1562 1563 1563 1563 1564 1564 1564 1565 1565 1565 1565 1565 1565 1565 1566 1566 1566 1566 1566 1566 1566 1566 1566 1566 1565 1565 1565 1565 1564 1564 1563 1563 1562 1562 1561 1561 1560 1560 1559 1559 1559 1559 1559 1558 1558 1558 1558 1559 1559 1560 1561 1562 1563 1564 1565 1566 1567 1568 1569 1570 1571 1571 1572 1572 1573 1572 1573 1573 1574 1575 1575
1554 1555 1555 1556 1556 1557 1558 1559 1559 1560 1561 1561 1562 1562 1562 1563 1563 1563 1564 1564 1564 1565 1565 1565 1565 1565 1566 1566 1566 1566 1566 1566 1566 1566 1566 1566 1566 1565 1565 1565 1565 1564 1564 1564 1563 1562 1562 1561 1561 1560 1560 1559 1559 1558 1558 1558 1558 1557 1557 1557 1557 1557 1558 1559 1560 1561 1562 1562 1563 1565 1566 1568 1569 1569 1570 1571 1572 1572 1573 1573 1573 1574 1574 1575 1575
1554 1555 1556 1556 1557 1558 1558 1559 1559 1560 1561 1561 1561 1562 1562 1563 1563 1563 1564 1564 1565 1565 1565 1565 1565 1566 1566 1566 1566 1566 1566 1566 1566 1566 1566 1566 1565 1565 1565 1565 1565 1564 1564 1563 1563 1562 1561 1561 1560 1560 1559 1558 1558 1557 1557 1557 1557 1557 1556 1556 1556 1556 1556 1557 1558 1559 1560 1561 1562 1564 1565 1567 1568 1569 1570 1570 1571 1572 1572 1573 1573 1574 1574 1575 1575
1554 1555 1556 1556 1556 1558 1558 1559 1559 1560 1561 1561 1561 1561 1562 1563 1563 1564 1564 1564 1565 1565 1565 1565 1565 1565 1566 1566 1566 1566 1566 1566 1566 1566 1566 1565 1565 1565 1565 1564 1564 1564 1563 1562 1562 1561 1560 1560 1559 1559 1558 1558 1557 1556 1556 1556 1556 1556 1556 1555 1555 1554 1555 1556 1557 1558 1559 1560 1562 1563 1565 1566 1567 1568 1569 1570 1571 1571 1572 1572 1573 1574 1574 1575 1576
1554 1555 1556 1556 1556 1557 1558 1558 1559 1560 1560 1560 1561 1561 1562 1563 1563 1563 1564 1564 1564 1565 1565 1565 1565 1565 1566 1566 1566 1566 1566 1566 1566 1566 1565 1565 1565 1564 1564 1564 1563 1563 1562 1562 1561 1560 1560 1559 1558 1558 1557 1557 1556 1556 1555 1555 1555 1555 1555 1555 1554 1554 1554 1555 1556 1557 1558 1559 1561 1562 1564 1565 1566 1567 1568 1569 1570 1570 1571 1572 1573 1574 1574 1575 1575
1553 1555 1555 1556 1556 1557 1558 1558 1559 1559 1560 1560 1561 1561 1562 1562 1563 1563 1564 1564 1564 1565 1565 1565 1565 1565 1566 1566 1566 1566 1566 1566 1565 1565 1565 1564 1564 1564 1564 1564 1563 1562 1562 1561 1560 1559 1559 1558 1557 1557 1557 1556 1556 1555 1555 1554 1554 1554 1554 1554 1554 1554 1554 1554 1555 1556 1557 1558 1560 1561 1563 1564 1565 1566 1568 1568 1569 1570 1570 1572 1573 1573 1574 1574 1575
1552 1553 1554 1555 1556 1556 1557 1558 1558 1559 1559 1560 1560 1561 1561 1562 1562 1563 1563 1564 1564 1565 1565 1565 1565 1565 1566 1566 1566 1566 1565 1565 1565 1564 1564 1564 1564 1564 1564 1563 1562 1562 1561 1560 1560 1559 1558 1557 1556 1556 1556 1555 1555 1554 1554 1553 1553 1553 1553 1554 1554 1554 1554 1554 1554 1555 1556 1557 1558 1560 1562 1563 1564 1565 1567 1568 1569 1569 1570 1571 1572 1573 1573 1574 1575
1552 1553 1554 1555 1556 1556 1557 1558 1558 1558 1559 1559 1560 1561 1561 1562 1562 1563 1563 1564 1564 1565 1565 1565 1565 1565 1565 1565 1565 1565 1565 1565 1565 1564 1564 1564 1564 1563 1563 1563 1562 1561 1561 1560 1559 1558 1557 1557 1555 1555 1555 1554 1554 1553 1553 1553 1553 1553 1553 1553 1553 1553 1553 1554 1554 1555 1555 1556 1557 1559 1561 1562 1563 1565 1566 1567 1568 1569 1570 1571 1571 1572 1573 1574 1575
1553 1553 1554 1554 1555 1556 1556 1557 1557 1558 1558 1559 1559 1560 1561 1561 1562 1563 1563 1564 1564 1565 1565 1565 1565 1565 1565 1565 1565 1565 1565 1565 1565 1564 1564 1564 1564 1563 1563 1562 1561 1561 1560 1559 1558 1557 1556 1556 1555 1554 1554 1553 1552 1552 1552 1552 1552 1552 1552 1552 1553 1553 1553 1553 1553 1554 1555 1556 1557 1558 1559 1561 1562 1564 1565 1566 1568 1569 1570 1571 1571 1571 1572 1574 1575
1552 1553 1553 1554 1555 1555 1556 1556 1557 1557 1558 1558 1559 1560 1560 1561 1562 1562 1563 1564 1564 1565 1565 1565 1565 1565 1565 1565 1565 1565 1565 1564 1564 1564 1564 1564 1563 1563 1562 1561 1561 1560 1559 1559 1558 1557 1556 1555 1554 1553 1552 1552 1551 1551 1551 1552 1552 1552 1552 1552 1552 1552 1552 1553 1553 1553 1554 1555 1556 1557 1559 1560 1562 1563 1565 1566 1567 1568 1569 1570 1571 1572 1572 1573 1574
1552 1552 1553 1554 1554 1555 1556 1556 1556 1557 1557 1558 1559 1559 1560 1561 1562 1563 1563 1564 1564 1564 1564 1564 1564 1565 1565 1565 1564 1564 1564 1564 1563 1563 1563 1563 1562 1562 1561 1560 1560 1559 1559 1558 1557 1556 1555 1554 1553 1552 1551 1551 1550 1550 1550 1550 1551 1551 1552 1551 1551 1552 1552 1552 1552 1553 1553 1554 1555 1556 1558 1559 1561 1563 1564 1565 1566 1568 1568 1570 1570 1571 1572 1573 1574
1551 1552 1552 1553 1554 1554 1555 1556 1556 1556 1557 1557 1558 1559 1560 1561 1562 1562 1563 1563 1564 1564 1564 1564 1564 1564 1564 1564 1564 1564 1563 1563 1562 1562 1562 1562 1561 1560 1560 1560 1559 1559 1558 1557 1556 1555 1554 1553 1552 1551 1551 1550 1549 1549 1549 1549 1550 1550 1551 1551 1551 1551 1551 1552 1552 1552 1552 1553 1554 1555 1557 1559 1560 1562 1563 1564 1565 1567 1568 1569 1570 1571 1572 1573 1574
1550 1551 1551 1552 1553 1554 1554 1555 1555 1555 1556 1557 1558 1558 1559 1560 1561 1561 1562 1563 1563 1564 1564 1564 1564 1564 1564 1563 1563 1563 1562 1562 1562 1561 1561 1560 1560 1560 1559 1559 1559 1558 1557 1556 1555 1554 1553 1552 1551 1550 1550 1549 1549 1548 1548 1549 1549 1549 1550 1550 1550 1550 1550 1551 1551 1551 1552 1552 1553 1555 1556 1558 1559 1560 1562 1563 1564 1566 1567 1568 1569 1570 1571 1572 1573
1549 1550 1550 1551 1552 1553 1554 1554 1555 1555 1555 1556 1557 1558 1559 1559 1560 1561 1562 1562 1563 1563 1564 1564 1564 1563 1563 1563 1562 1562 1562 1561 1561 1561 1560 1560 1559 1559 1559 1559 1558 1557 1556 1555 1554 1553 1552 1551 1550 1549 1549 1548 1548 1547 1547 1548 1548 1548 1548 1548 1548 1548 1549 1550 1550 1551 1551 1552 1553 1554 1556 1557 1558 1559 1560 1562 1563 1565 1566 1567 1568 1569 1570 1571 1572
1548 1549 1550 1550 1550 1552 1553 1554 1555 1555 1555 1556 1557 1557 1558 1559 1560 1561 1561 1561 1562 1562 1563 1563 1563 1563 1562 1562 1562 1561 1561 1561 1561 1560 1559 1559 1559 1559 1558 1558 1557 1556 1555 1554 1553 1551 1550 1550 1549 1548 1547 1547 1546 1546 1546 1546 1547 1547 1547 1547 1547 1547 1547 1548 1549 1550 1550 1550 1552 1554 1555 1555 1557 1558 1559 1561 1563 1564 1565 1566 1567 1568 1569 1570 1571
1548 1549 1549 1550 1550 1551 1552 1553 1554 1555 1555 1555 1556 1557 1558 1559 1560 1560 1560 1560 1561 1561 1562 1562 1562 1562 1562 1562 1562 1561 1561 1561 1560 1559 1559 1558 1558 1558 1557 1557 1556 1555 1554 1553 1551 1550 1549 1548 1548 1547 1546 1545 1545 1545 1545 1545 1545 1545 1545 1546 1546 1546 1546 1546 1547 1548 1549 1549 1550 1552 1553 1554 1555 1556 1558 1560 1561 1563 1564 1565 1566 1566 1567 1569 1570
1548 1549 1549 1549 1549 1550 1551 1552 1553 1554 1554 1555 1556 1556 1557 1558 1559 1559 1559 1559 1560 1560 1560 1561 1561 1561 1561 1561 1562 1562 1561 1561 1560 1559 1558 1558 1557 1557 1556 1555 1554 1553 1553 1551 1550 1549 1548 1547 1546 1546 1545 1544 1544 1544 1543 1544 1544 1544 1544 1544 1544 1544 1544 1544 1545 1546 1548 1548 1548 1549 1550 1552 1553 1555 1557 1558 1560 1561 1562 1563 1564 1565 1566 1567 1568
1547 1548 1549 1548 1548 1549 1550 1551 1552 1553 1553 1555 1555 1556 1557 1557 1558 1558 1559 1559 1559 1560 1560 1560 1561 1561 1561 1561 1561 1561 1561 1561 1560 1559 1558 1557 1556 1556 1555 1554 1553 1552 1551 1550 1549 1548 1547 1546 1545 1544 1544 1544 1543 1543 1542 1542 1542 1542 1542 1542 1542 1542 1542 1542 1543 1544 1546 1547 1547 1547 1548 1549 1551 1553 1555 1557 1558 1559 1560 1562 1563 1564 1565 1566 1567
1547 1547 1547 1547 1547 1547 1548 1549 1551 1551 1552 1553 1554 1555 1556 1556 1557 1558 1558 1559 1559 1560 1560 1561 1561 1561 1561 1561 1561 1561 1561 1560 1560 1559 1558 1557 1556 1555 1555 1554 1553 1552 1551 1550 1548 1547 1546 1545 1544 1544 1543 1543 1542 1542 1541 1541 1541 1541 1540 1540 1540 1541 1540 1541 1542 1543 1544 1545 1545 1546 1547 1548 1549 1551 1553 1555 1556 1558 1559 1560 1561 1563 1564 1565 1566
1545 1545 1544 1545 1546 1546 1547 1548 1549 1550 1550 1551 1553 1554 1555 1556 1557 1558 1558 1559 1559 1560 1561 1560 1560 1560 1560 1560 1560 1560 1560 1560 1560 1559 1558 1557 1556 1555 1554 1553 1552 1551 1550 1549 1547 1546 1545 1544 1543 1543 1542 1541 1541 1541 1540 1540 1539 1539 1538 1538 1538 1538 1538 1539 1540 1542 1542 1543 1544 1544 1545 1546 1547 1549 1551 1552 1554 1555 1557 1558 1560 1561 1562 1563 1564
1543 1542 1543 1544 1544 1544 1545 1547 1548 1548 1549 1550 1552 1553 1554 1556 1556 1557 1558 1558 1559 1559 1560 1559 1559 1559 1559 1559 1559 1559 1559 1559 1559 1558 1557 1556 1555 1554 1553 1552 1551 1550 1549 1548 1547 1546 1545 1544 1543 1543 1542 1541 1540 1540 1539 1539 1538 1537 1537 1536 1536 1536 1537 1537 1539 1540 1541 1541 1542 1543 1544 1545 1546 1547 1548 1549 1551 1553 1555 1557 1558 1559 1560 1561 1562
1541 1541 1542 1543 1543 1543 1544 1546 1547 1548 1549 1549 1550 1552 1553 1555 1556 1556 1557 1557 1558 1558 1558 1558 1558 1558 1558 1558 1559 1559 1558 1558 1558 1558 1557 1556 1555 1554 1552 1551 1550 1549 1548 1548 1546 1545 1544 1543 1543 1542 1542 1541 1540 1540 1539 1538 1537 1536 1536 1535 1534 1534 1535 1536 1537 1538 1539 1540 1541 1542 1543 1544 1545 1545 1546 1548 1549 1550 1553 1554 1556 1557 1558 1559 1560
1539 1540 1540 1541 1542 1542 1543 1545 1547 1548 1549 1550 1550 1551 1552 1553 1554 1555 1556 1556 1556 1557 1557 1557 1557 1557 1557 1558 1558 1558 1557 1557 1557 1557 1556 1555 1554 1553 1551 1550 1549 1548 1548 1547 1546 1545 1544 1543 1543 1542 1541 1541 1541 1540 1539 1538 1537 1536 1535 1534 1533 1533 1534 1535 1536 1537 1538 1539 1540 1541 1542 1544 1544 1545 1547 1548 1549 1549 1551 1552 1553 1554 1555 1556 1558
1537 1538 1539 1539 1540 1541 1542 1544 1546 1547 1549 1549 1550 1551 1551 1551 1552 1553 1554 1554 1555 1555 1556 1556 1556 1556 1556 1557 1557 1557 1556 1556 1556 1556 1555 1554 1553 1552 1550 1549 1548 1547 1547 1546 1546 1545 1544 1544 1543 1542 1542 1542 1541 1540 1539 1538 1537 1536 1534 1533 1533 1534 1534 1535 1535 1535 1536 1537 1539 1540 1542 1544 1545 1545 1546 1547 1548 1549 1549 1550 1551 1552 1553 1554 1555
1535 1536 1536 1537 1538 1539 1541 1543 1545 1546 1547 1548 1549 1549 1549 1548 1549 1549 1550 1552 1552 1553 1554 1555 1555 1555 1555 1556 1556 1556 1555 1555 1555 1555 1554 1553 1552 1551 1550 1549 1548 1547 1546 1546 1545 1545 1544 1544 1543 1543 1542 1542 1541 1541 1539 1538 1537 1536 1535 1534 1534 1534 1534 1535 1535 1535 1535 1536 1538 1539 1542 1544 1545 1545 1546 1546 1547 1547 1548 1548 1549 1550 1550 1551 1553
1532 1533 1534 1535 1537 1538 1540 1542 1544 1546 1547 1547 1547 1546 1546 1546 1546 1547 1548 1549 1550 1550 1552 1553 1554 1554 1554 1555 1555 1555 1554 1554 1553 1553 1553 1552 1551 1550 1549 1548 1547 1546 1546 1546 1545 1545 1544 1544 1543 1542 1542 1541 1541 1540 1539 1539 1537 1536 1536 1536 1536 1535 1535 1535 1535 1535 1535 1535 1537 1538 1540 1543 1544 1544 1544 1545 1544 1545 1546 1546 1547 1547 1548 1549 1550
1530 1531 1532 1533 1535 1537 1539 1542 1544 1545 1545 1545 1544 1543 1543 1544 1545 1546 1547 1548 1548 1549 1550 1551 1552 1553 1553 1553 1553 1553 1553 1553 1552 1552 1552 1551 1550 1549 1548 1547 1547 1546 1546 1546 1545 1545 1544 1543 1543 1542 1542 1541 1541 1540 1540 1539 1538 1537 1536 1536 1536 1536 1536 1535 1535 1535 1535 1535 1536 1537 1539 1541 1542 1543 1543 1543 1542 1542 1543 1544 1544 1545 1546 1547 1548
1528 1529 1531 1532 1534 1536 1538 1541 1542 1542 1542 1540 1539 1539 1540 1542 1543 1545 1546 1547 1548 1548 1549 1549 1550 1552 1552 1552 1552 1552 1552 1551 1551 1551 1551 1550 1549 1548 1548 1547 1546 1546 1546 1546 1546 1545 1544 1544 1543 1542 1542 1541 1541 1540 1540 1539 1538 1538 1537 1536 1536 1536 1536 1537 1536 1535 1535 1535 1535 1536 1538 1539 1540 1541 1541 1541 1541 1541 1542 1542 1543 1543 1544 1545 1546
1526 1528 1530 1532 1533 1535 1537 1539 1538 1539 1540 1537 1535 1536 1538 1540 1541 1543 1544 1545 1545 1546 1547 1547 1549 1550 1551 1551 1551 1551 1550 1550 1550 1550 1550 1549 1548 1548 1547 1547 1546 1546 1546 1546 1546 1545 1545 1544 1543 1543 1542 1542 1541 1540 1540 1539 1539 1538 1537 1537 1536 1536 1537 1537 1537 1536 1535 1535 1535 1535 1536 1537 1538 1539 1539 1539 1540 1540 1540 1541 1541 1541 1542 1542 1543
1525 1527 1529 1531 1532 1534 1536 1535 1536 1539 1538 1533 1532 1534 1535 1536 1538 1540 1542 1542 1542 1543 1544 1546 1548 1549 1550 1550 1550 1549 1549 1549 1549 1549 1549 1548 1548 1547 1547 1546 1546 1546 1546 1546 1546 1545 1545 1544 1543 1543 1543 1542 1541 1541 1540 1540 1539 1538 1538 1538 1537 1537 1537 1537 1537 1536 1535 1535 1535 1534 1535 1535 1536 1537 1537 1538 1538 1538 1539 1539 1539 1539 1539 1540 1540
1526 1527 1529 1529 1531 1533 1534 1534 1536 1537 1534 1531 1530 1531 1531 1533 1535 1538 1539 1540 1540 1541 1542 1545 1546 1547 1548 1549 1549 1548 1548 1548 1548 1548 1548 1548 1547 1547 1546 1547 1547 1547 1546 1546 1545 1545 1545 1544 1544 1543 1543 1542 1542 1541 1541 1540 1539 1539 1538 1538 1538 1537 1537 1537 1536 1536 1535 1535 1534 1534 1534 1534 1534 1535 1535 1536 1536 1537 1537 1537 1537 1537 1537 1537 1538
1526 1526 1527 1528 1530 1532 1533 1534 1535 1533 1531 1530 1529 1528 1529 1531 1533 1534 1536 1538 1538 1539 1541 1543 1544 1545 1547 1547 1547 1547 1547 1547 1547 1547 1547 1547 1547 1546 1546 1547 1547 1546 1546 1546 1545 1545 1545 1544 1544 1543 1543 1543 1542 1542 1541 1540 1539 1539 1539 1538 1538 1537 1537 1536 1536 1536 1535 1535 1534 1534 1534 1534 1534 1534 1534 1534 1535 1534 1534 1535 1535 1535 1535 1535 1535
1525 1526 1526 1527 1529 1530 1531 1532 1532 1531 1529 1529 1527 1527 1528 1529 1530 1531 1532 1535 1536 1537 1540 1541 1543 1545 1545 1545 1545 1546 1546 1546 1546 1547 1547 1546 1546 1546 1546 1546 1546 1547 1546 1546 1546 1545 1545 1544 1544 1543 1543 1543 1543 1542 1541 1540 1539 1539 1539 1538 1538 1537 1536 1536 1535 1535 1534 1534 1534 1534 1534 1534 1533 1533 1533 1533 1533 1533 1533 1533 1533 1533 1533 1533 1532
1525 1526 1526 1526 1528 1529 1530 1530 1530 1529 1527 1527 1527 1527 1526 1527 1527 1527 1529 1532 1534 1537 1539 1540 1542 1544 1544 1544 1544 1545 1545 1545 1546 1546 1546 1546 1546 1547 1546 1547 1547 1547 1547 1546 1546 1545 1544 1544 1544 1543 1543 1543 1543 1542 1541 1540 1539 1539 1538 1538 1537 1537 1536 1535 1535 1534 1534 1534 1533 1533 1534 1533 1533 1532 1532 1532 1532 1531 1531 1531 1531 1531 1531 1530 1530
1524 1525 1526 1527 1527 1528 1529 1529 1529 1528 1527 1526 1526 1525 1525 1525 1525 1525 1527 1531 1533 1536 1538 1539 1541 1543 1543 1542 1543 1544 1544 1545 1545 1545 1546 1546 1546 1547 1546 1547 1547 1546 1546 1546 1545 1545 1544 1544 1543 1543 1543 1542 1542 1541 1540 1539 1539 1538 1538 1538 1537 1536 1536 1535 1535 1534 1533 1533 1533 1533 1533 1533 1532 1532 1532 1531 1531 1530 1530 1529 1529 1529 1529 1528 1528